[[{"header":{"parameterUnit":"m.s-1","parameterCategory":1,"la1":30.2991,"la2":30.254,"lo1":-89.0895,"lo2":-89.0444,"dy":0.0017,"dx":0.0017,"nx":28,"ny":28,"refTime":"2024-04-07T03:00:00:Z","depth":0,"parameterNumber":2,"parameterNumberName":"U-component_of_WINDS"},"data":[0,0,0,0,0,0,0,0,0,0,0,0,0,0,0,0,0,0,0,0,0,0,0,0,0,0,0,0,0,0,0,0,0,0,0,0,0,0,0,0,0,0,0,0,0,0,0,0,0,0,0,0,0,0,0,0,0,0,-1.9471,-1.9471,0,-1.9481,-1.9481,-1.9481,-1.9439,-1.9437,-1.9436,-1.9435,-1.9446,-1.9448,-1.9449,0,0,0,0,0,0,0,0,0,0,0,0,0,-1.9414,-1.9416,-1.9471,-1.9471,-1.9471,-1.9481,-1.9481,-1.9481,-1.9439,-1.9437,-1.9436,-1.9434,-1.9446,-1.9447,-1.9449,0,0,0,0,0,0,0,0,0,0,0,0,0,-1.9433,-1.9416,-1.9471,-1.9451,-1.9449,-1.9481,-1.9481,-1.9481,-1.9439,-1.9437,-1.9435,-1.9434,-1.9445,-1.9447,-1.9449,-1.9501,0,0,-1.9456,-1.9457,0,0,0,0,0,0,0,0,-1.9432,-1.9435,-1.9454,-1.9452,-1.945,-1.9456,-1.9465,-1.9488,-1.944,-1.9443,-1.9435,-1.9433,-1.9451,-1.9453,-1.9459,-1.9501,-1.9502,-1.9456,-1.9458,-1.9459,-1.9459,0,0,0,0,0,0,0,-1.9431,-1.9435,-1.9475,-1.9454,-1.9452,-1.9442,-1.9442,-1.9469,-1.9458,-1.9443,-1.9439,-1.9441,-1.945,-1.9457,-1.9459,-1.9502,-1.9456,-1.9458,-1.946,-1.9461,-1.9587,-1.9589,0,0,0,0,0,0,-1.9432,-1.9434,-1.9474,-1.9475,-1.9436,-1.9444,-1.9445,-1.9456,-1.9457,-1.9455,-1.9443,-1.9439,-1.9454,-1.9456,-1.9459,-1.9519,-1.9459,-1.9461,-1.9462,-1.9585,-1.9587,-1.959,0,0,0,0,0,0,-1.9431,-1.9436,-1.9474,-1.9454,-1.9458,-1.9447,-1.9461,-1.9458,-1.9464,-1.9457,-1.9455,-1.9452,-1.9453,-1.9456,-1.9491,-1.9519,-1.9462,-1.9464,-1.9583,-1.9586,-1.9588,-1.964,0,0,0,0,0,0,-1.943,-1.9436,-1.9455,-1.9454,-1.9459,-1.9505,-1.9462,-1.9459,-1.9468,-1.9464,-1.9465,-1.9464,-1.9451,-1.9488,-1.9493,-1.9521,-1.9466,-1.958,-1.9584,-1.9588,-1.9635,-1.9644,-1.9651,0,0,0,0,0,-1.9428,-1.947,-1.9457,-1.9462,-1.9483,-1.9507,-1.951,-1.9494,-1.9471,-1.949,-1.9486,-1.9464,-1.9515,-1.9492,-1.9497,-1.9526,-1.9578,-1.9583,-1.9587,-1.9632,-1.9642,-1.9651,0,0,0,0,0,0,-1.9475,-1.9469,-1.9455,-1.9497,-1.9503,-1.95,-1.9524,-1.9506,-1.9519,-1.9514,-1.9494,-1.9495,-1.9533,-1.9533,-1.9507,-1.9576,-1.9542,-1.9548,-1.9574,-1.9584,-1.9592,-1.9591,-1.9467,0,0,0,0,0,-1.949,-1.951,-1.9504,-1.9542,-1.9546,-1.9535,-1.9545,-1.9532,-1.9537,-1.954,-1.9537,-1.9543,-1.9561,-1.9573,-1.9588,-1.9635,-1.9635,-1.9658,-1.9666,-1.9673,-1.9678,-1.9702,-1.9713,-1.9605,-1.9605,-1.9604,0,0,-1.9522,-1.9521,-1.9535,-1.9552,-1.9555,-1.9576,-1.9537,-1.9561,-1.9577,-1.9543,-1.9576,-1.9575,-1.958,-1.9621,-1.9639,-1.9622,-1.9708,-1.9678,-1.9684,-1.9685,-1.9708,-1.9718,-1.9728,-1.9608,-1.9607,-1.9607,0,0,-1.9591,-1.9592,-1.9624,-1.9628,-1.9632,-1.9625,-1.9632,-1.9632,-1.963,-1.9662,-1.9637,-1.9655,-1.9686,-1.9691,-1.9697,-1.9767,-1.9748,-1.9773,-1.9815,-1.9839,-1.9848,-1.9855,-1.988,-1.9889,-1.9778,-1.9778,-1.9779,0,-1.963,-1.966,-1.9643,-1.9669,-1.9677,-1.9647,-1.9679,-1.9684,-1.9693,-1.97,-1.9681,-1.9718,-1.9719,-1.9761,-1.9778,-1.9784,-1.9792,-1.9773,-1.9848,-1.9855,-1.9862,-1.9885,-1.9895,-1.9781,-1.9781,-1.9781,-1.9781,0,-1.9708,-1.973,-1.9755,-1.9765,-1.9776,-1.9804,-1.9791,-1.9804,-1.9791,-1.9785,-1.9818,-1.9819,-1.9834,-1.9843,-1.9831,-1.9883,-1.9872,-1.9851,-1.9817,-1.9875,-1.9897,-1.9906,-1.9786,-1.9785,-1.9784,-1.9783,0,0,-1.9807,-1.9806,-1.9816,-1.982,-1.9822,-1.9839,-1.9867,-1.9881,-1.9892,-1.99,-1.9923,-1.9949,-1.9929,-1.9936,-1.9924,-1.9945,-2.0001,-1.9921,-1.9921,-1.9936,-2.0058,-2.0074,-2.0085,-1.9988,-1.9989,-1.9991,-2.0057,0,-1.9874,-1.9921,-1.9905,-1.9953,-1.9972,-1.9945,-1.9968,-1.9973,-1.9968,-1.9984,-1.9979,-1.9998,-1.997,-1.9974,-1.9994,-1.999,-2.0025,-1.9985,-2.0008,-2.0009,-2.0008,-2.0096,-2.0113,-2.0176,-2.0066,-2.0067,-2.0068,0,-1.9959,-1.9969,-2.0019,-2.0018,-2.0025,-2.0047,-2.0059,-2.0075,-2.0079,-2.0074,-2.0082,-2.0066,-2.0092,-2.0059,-2.0095,-2.0068,-2.0077,-2.0076,-2.0078,-2.008,-2.0042,-2.01,-2.0196,-2.0206,-2.0082,-2.0081,-2.008,0,-2.0026,-2.0052,-2.0085,-2.0089,-2.0089,-2.0105,-2.0106,-2.0108,-2.0118,-2.0128,-2.0134,-2.0148,-2.0155,-2.0166,-2.0154,-2.013,-2.0192,-2.0157,-2.0189,-2.0189,-2.0203,-2.0202,-2.0302,-2.0209,-2.0209,-2.0209,-2.0209,0,-2.0102,-2.0134,-2.0115,-2.0135,-2.0169,-2.0151,-2.0186,-2.0183,-2.0186,-2.0205,-2.0182,-2.02,-2.0182,-2.0199,-2.019,-2.0221,-2.0225,-2.0222,-2.0219,-2.0224,-2.0224,-2.0229,-2.0225,-2.0211,-2.0211,-2.021,-2.021,0,-2.0183,-2.0172,-2.0205,-2.0202,-2.0202,-2.0228,-2.0225,-2.0244,-2.0237,-2.0262,-2.0266,-2.0256,-2.0275,-2.0263,-2.0283,-2.0276,-2.0317,-2.0308,-2.0316,-2.0313,-2.0345,-2.0342,-2.0451,-2.0465,-2.0364,-2.0365,-2.0366,0,-2.0233,-2.0256,-2.0255,-2.0266,-2.0268,-2.0286,-2.0296,-2.0279,-2.029,-2.0296,-2.0314,-2.0331,-2.0343,-2.0375,-2.0369,-2.0384,-2.0375,-2.0412,-2.0377,-2.0381,-2.0375,-2.0374,-2.0376,-2.0419,-2.042,-2.0421,-2.0422,0,-2.0322,-2.0315,-2.0329,-2.0342,-2.0353,-2.0363,-2.037,-2.038,-2.0363,-2.0377,-2.0395,-2.0405,-2.0424,-2.0441,-2.0453,-2.0454,-2.0436,-2.0433,-2.0441,-2.0446,-2.045,-2.0448,-2.0335,-2.0431,-2.043,-2.0429,-2.0429,-2.0428,-2.0388,-2.0407,-2.041,-2.0426,-2.043,-2.0437,-2.0454,-2.0449,-2.0465,-2.0479,-2.0468,-2.049,-2.0494,-2.0508,-2.0511,-2.0528,-2.0513,-2.0525,-2.0528,-2.0531,-2.0535,-2.0447,-2.053,-2.053,-2.053,-2.053,-2.0529,0,-2.0476,-2.0476,-2.0491,-2.0502,-2.0515,-2.0496,-2.0503,-2.0515,-2.0535,-2.0539,-2.0552,-2.0573,-2.0589,-2.0585,-2.0599,-2.0614,-2.0606,-2.0618,-2.0617,-2.0617,-2.0548,-2.0539,-2.0624,-2.0624,-2.0624,-2.0624,-2.0624,-2.0624,-2.0523,-2.0555,-2.0548,-2.0581,-2.058,-2.0602,-2.0607,-2.0614,-2.0617,-2.0642,-2.0655,-2.0652,-2.0653,-2.0667,-2.0681,-2.0679,-2.0685,-2.0701,-2.0696,-2.0632,-2.0622,-2.0613,-2.0605,-2.0703,-2.0703,-2.0764,-2.0765,-2.0765]},{"header":{"parameterUnit":"m.s-1","parameterCategory":1,"la1":30.2991,"la2":30.254,"lo1":-89.0895,"lo2":-89.0444,"dy":0.0017,"dx":0.0017,"nx":28,"ny":28,"refTime":"2024-04-07T03:00:00:Z","depth":0,"parameterNumber":3,"parameterNumberName":"V-component_of_WINDS"},"data":[0,0,0,0,0,0,0,0,0,0,0,0,0,0,0,0,0,0,0,0,0,0,0,0,0,0,0,0,0,0,0,0,0,0,0,0,0,0,0,0,0,0,0,0,0,0,0,0,0,0,0,0,0,0,0,0,0,0,2.7108,2.7108,0,2.7109,2.7109,2.7109,2.7051,2.7049,2.7048,2.7046,2.7047,2.7049,2.705,0,0,0,0,0,0,0,0,0,0,0,0,0,2.7055,2.7056,2.7108,2.7108,2.7108,2.7109,2.7109,2.7109,2.7051,2.7049,2.7047,2.7046,2.7047,2.7048,2.705,0,0,0,0,0,0,0,0,0,0,0,0,0,2.7069,2.7056,2.7108,2.7079,2.7077,2.7109,2.7109,2.7109,2.7052,2.7049,2.7047,2.7045,2.7046,2.7048,2.705,2.7111,0,0,2.7057,2.7058,0,0,0,0,0,0,0,0,2.7068,2.7071,2.7084,2.7081,2.7079,2.7078,2.7091,2.711,2.7052,2.7061,2.7046,2.7044,2.7059,2.706,2.7065,2.7111,2.7111,2.7057,2.7059,2.706,2.706,0,0,0,0,0,0,0,2.7067,2.7071,2.7109,2.7084,2.7081,2.7066,2.7065,2.7094,2.7073,2.706,2.7056,2.7057,2.7057,2.7064,2.7065,2.7111,2.7057,2.7059,2.7061,2.7062,2.7204,2.7206,0,0,0,0,0,0,2.707,2.707,2.7109,2.7109,2.7068,2.7069,2.7068,2.708,2.7073,2.7069,2.7059,2.7054,2.7061,2.7063,2.7065,2.7133,2.706,2.7062,2.7063,2.7201,2.7204,2.7207,0,0,0,0,0,0,2.707,2.7074,2.7109,2.7088,2.7092,2.7072,2.7086,2.7082,2.7088,2.7072,2.7068,2.7069,2.7059,2.7062,2.7099,2.7133,2.7063,2.7065,2.7198,2.7202,2.7206,2.7272,0,0,0,0,0,0,2.7068,2.7074,2.7097,2.7089,2.7093,2.7144,2.7088,2.7083,2.7092,2.7085,2.708,2.7077,2.7057,2.7096,2.7102,2.7134,2.7066,2.7195,2.72,2.7205,2.7267,2.7277,2.7287,0,0,0,0,0,2.7067,2.7116,2.7099,2.7104,2.7121,2.7146,2.7148,2.7124,2.7095,2.7117,2.7107,2.7077,2.7129,2.7101,2.7106,2.714,2.7193,2.7199,2.7204,2.7262,2.7275,2.7286,0,0,0,0,0,0,2.7129,2.7115,2.7095,2.7144,2.7147,2.7136,2.7163,2.7139,2.715,2.7144,2.7114,2.7113,2.7155,2.7152,2.7121,2.7197,2.7155,2.7162,2.7198,2.721,2.722,2.7219,2.7068,0,0,0,0,0,2.7149,2.717,2.7156,2.7201,2.7203,2.7183,2.7193,2.7175,2.7176,2.7176,2.7169,2.7171,2.7187,2.7199,2.7213,2.7266,2.7264,2.7292,2.7302,2.7311,2.7316,2.7343,2.7355,2.7225,2.7225,2.7225,0,0,2.7189,2.7184,2.7199,2.7213,2.7213,2.7234,2.7184,2.721,2.7226,2.718,2.7215,2.721,2.721,2.7255,2.7275,2.7253,2.7352,2.7318,2.7324,2.7326,2.735,2.7362,2.7373,2.7229,2.7228,2.7228,0,0,2.7273,2.7273,2.7308,2.7309,2.7309,2.7295,2.7304,2.7297,2.7292,2.7326,2.7292,2.731,2.734,2.7341,2.7345,2.743,2.7402,2.7435,2.7487,2.7513,2.7523,2.7532,2.756,2.7571,2.7441,2.7442,2.7442,0,2.7324,2.7355,2.733,2.7357,2.7364,2.7324,2.7359,2.7361,2.7366,2.7371,2.7348,2.7383,2.738,2.7424,2.7445,2.7451,2.7459,2.7435,2.7524,2.7532,2.754,2.7567,2.7578,2.7445,2.7445,2.7445,2.7444,0,2.7416,2.7439,2.7468,2.7473,2.7483,2.7515,2.7493,2.7506,2.7487,2.7476,2.7511,2.7507,2.7519,2.7528,2.751,2.757,2.7556,2.7529,2.7486,2.7557,2.7581,2.7592,2.7451,2.745,2.7448,2.7447,0,0,2.754,2.753,2.7541,2.7542,2.7539,2.7555,2.7585,2.7596,2.7608,2.7613,2.7636,2.7661,2.7635,2.764,2.7622,2.7645,2.771,2.7614,2.7614,2.7631,2.7774,2.7793,2.7806,2.7693,2.7695,2.7696,2.7773,0,2.762,2.7669,2.7647,2.7698,2.7718,2.768,2.7706,2.7706,2.7697,2.7712,2.7701,2.7719,2.7685,2.7687,2.7709,2.7698,2.7738,2.7692,2.7713,2.7714,2.7712,2.7819,2.784,2.7913,2.7783,2.7785,2.7786,0,2.772,2.7728,2.7782,2.7774,2.7781,2.7805,2.7813,2.7828,2.7828,2.7819,2.7825,2.7801,2.7829,2.7787,2.7825,2.7794,2.7801,2.7797,2.78,2.7799,2.7753,2.782,2.7936,2.7946,2.7801,2.78,2.7799,0,2.7803,2.7827,2.7862,2.7864,2.7856,2.7873,2.7871,2.7868,2.7876,2.7884,2.7888,2.7899,2.7905,2.7914,2.7893,2.7865,2.7933,2.789,2.7925,2.7926,2.794,2.7939,2.8057,2.7948,2.7948,2.7947,2.7947,0,2.7894,2.7928,2.7898,2.792,2.7956,2.793,2.7967,2.796,2.7958,2.7977,2.7945,2.7964,2.7936,2.7952,2.7936,2.7969,2.7972,2.7965,2.796,2.7967,2.7968,2.797,2.7964,2.795,2.795,2.7949,2.7949,0,2.7991,2.7974,2.8008,2.7998,2.7996,2.8023,2.8014,2.8033,2.8021,2.8045,2.8049,2.8031,2.8048,2.8028,2.8044,2.8033,2.8076,2.8065,2.8076,2.8072,2.8108,2.8104,2.823,2.8245,2.8128,2.8129,2.813,0,2.805,2.8075,2.8067,2.8077,2.8076,2.8093,2.8101,2.8076,2.8085,2.8086,2.8105,2.8119,2.8129,2.8157,2.8145,2.8156,2.8144,2.8187,2.8145,2.8151,2.8142,2.814,2.8142,2.8195,2.8196,2.8198,2.8199,0,2.8155,2.8145,2.8157,2.8166,2.8176,2.8182,2.8186,2.8196,2.817,2.8183,2.8199,2.8206,2.8222,2.8235,2.8243,2.824,2.8215,2.8212,2.822,2.8227,2.8232,2.8228,2.8098,2.8209,2.8208,2.8207,2.8207,2.8206,2.8234,2.8253,2.825,2.8265,2.8265,2.8269,2.8285,2.8276,2.8289,2.8299,2.8284,2.8304,2.8302,2.831,2.831,2.8325,2.8306,2.8319,2.8322,2.8325,2.833,2.8231,2.8327,2.8326,2.8326,2.8326,2.8325,0,2.8336,2.8332,2.8345,2.8351,2.8362,2.8338,2.834,2.8351,2.8369,2.8369,2.8379,2.8398,2.8411,2.84,2.8411,2.8425,2.8413,2.8428,2.8426,2.8426,2.8347,2.8337,2.8437,2.8437,2.8437,2.8437,2.8437,2.8437,2.839,2.8422,2.8411,2.8442,2.8437,2.8456,2.846,2.8463,2.8463,2.8485,2.8495,2.8488,2.8483,2.8493,2.8504,2.8501,2.8505,2.8524,2.8517,2.8442,2.8431,2.8421,2.8412,2.8526,2.8526,2.8594,2.8595,2.8595]}]]